| time (UTC) | temp F | wind direction | speed MPH | gust MPH | rain 1hr in | rain 24hr in | rain mn in | humidity % | barometer mb |
| 20260507180040 | 49 | 171 | 5.0 | 8.0 | 0.00 | 0.00 | 0.00 | 26 | 1016.1 |
| 20260507175038 | 50 | 170 | 5.0 | 9.0 | 0.00 | 0.00 | 0.00 | 26 | 1016.0 |
| 20260507174037 | 50 | 176 | 6.0 | 12.0 | 0.00 | 0.00 | 0.00 | 25 | 1015.9 |
| 20260507173036 | 50 | 171 | 6.0 | 12.0 | 0.00 | 0.00 | 0.00 | 24 | 1015.8 |
| 20260507172035 | 51 | 165 | 6.0 | 13.0 | 0.00 | 0.00 | 0.00 | 24 | 1015.7 |
| 20260507171036 | 51 | 164 | 6.0 | 13.0 | 0.00 | 0.00 | 0.00 | 24 | 1015.6 |
| 20260507170035 | 52 | 162 | 7.0 | 12.0 | 0.00 | 0.00 | 0.00 | 24 | 1015.6 |
| 20260507165033 | 52 | 182 | 7.0 | 14.0 | 0.00 | 0.00 | 0.00 | 24 | 1015.5 |
| 20260507164032 | 52 | 183 | 8.0 | 14.0 | 0.00 | 0.00 | 0.00 | 24 | 1015.4 |
| 20260507163050 | 53 | 179 | 9.0 | 16.0 | 0.00 | 0.00 | 0.00 | 23 | 1015.3 |
| 20260507162029 | 53 | 179 | 9.0 | 16.0 | 0.00 | 0.00 | 0.00 | 23 | 1015.2 |
| 20260507161030 | 54 | 188 | 9.0 | 17.0 | 0.00 | 0.00 | 0.00 | 23 | 1015.1 |
| 20260507160029 | 54 | 192 | 10.0 | 16.0 | 0.00 | 0.00 | 0.00 | 23 | 1015.0 |
| 20260507155047 | 54 | 194 | 9.0 | 16.0 | 0.00 | 0.00 | 0.00 | 23 | 1014.9 |
| 20260507154026 | 55 | 195 | 8.0 | 13.0 | 0.00 | 0.00 | 0.00 | 23 | 1015.0 |
| 20260507153045 | 55 | 206 | 8.0 | 13.0 | 0.00 | 0.00 | 0.00 | 23 | 1014.9 |
| 20260507152023 | 57 | 196 | 7.0 | 14.0 | 0.00 | 0.00 | 0.00 | 21 | 1014.9 |
| 20260507151022 | 55 | 177 | 5.0 | 13.0 | 0.00 | 0.00 | 0.00 | 23 | 1014.8 |
| 20260507150041 | 55 | 173 | 7.0 | 14.0 | 0.00 | 0.00 | 0.00 | 23 | 1014.9 |
| 20260507145020 | 57 | 88 | 2.0 | 6.0 | 0.00 | 0.00 | 0.00 | 16 | 1014.9 |
| 20260507144018 | 56 | 339 | 3.0 | 8.0 | 0.00 | 0.00 | 0.00 | 17 | 1014.8 |
| 20260507143020 | 56 | 297 | 5.0 | 9.0 | 0.00 | 0.00 | 0.00 | 17 | 1014.8 |
| 20260507142018 | 56 | 279 | 4.0 | 8.0 | 0.00 | 0.00 | 0.00 | 17 | 1014.8 |
| 20260507141037 | 57 | 269 | 5.0 | 8.0 | 0.00 | 0.00 | 0.00 | 17 | 1014.7 |
| 20260507140046 | 57 | 243 | 4.0 | 8.0 | 0.00 | 0.00 | 0.00 | 18 | 1014.7 |
| 20260507135045 | 56 | 257 | 4.0 | 8.0 | 0.00 | 0.00 | 0.00 | 17 | 1014.7 |
| 20260507134044 | 57 | 274 | 5.0 | 9.0 | 0.00 | 0.00 | 0.00 | 17 | 1014.7 |
| 20260507133043 | 56 | 266 | 4.0 | 9.0 | 0.00 | 0.00 | 0.00 | 18 | 1014.7 |
| 20260507132043 | 57 | 285 | 5.0 | 10.0 | 0.00 | 0.00 | 0.00 | 18 | 1014.7 |
| 20260507131041 | 56 | 303 | 7.0 | 11.0 | 0.00 | 0.00 | 0.00 | 18 | 1014.8 |
| 20260507130040 | 57 | 302 | 4.0 | 11.0 | 0.00 | 0.00 | 0.00 | 18 | 1014.8 |
| 20260507125059 | 56 | 290 | 6.0 | 10.0 | 0.00 | 0.00 | 0.00 | 19 | 1014.8 |
| 20260507124038 | 56 | 297 | 4.0 | 11.0 | 0.00 | 0.00 | 0.00 | 18 | 1014.8 |
| 20260507123037 | 56 | 289 | 6.0 | 11.0 | 0.00 | 0.00 | 0.00 | 20 | 1014.8 |
| 20260507122037 | 55 | 309 | 5.0 | 10.0 | 0.00 | 0.00 | 0.00 | 20 | 1014.8 |
| 20260507121058 | 56 | 326 | 5.0 | 9.0 | 0.00 | 0.00 | 0.00 | 20 | 1014.8 |
| 20260507120055 | 56 | 294 | 5.0 | 10.0 | 0.00 | 0.00 | 0.00 | 21 | 1014.8 |
| 20260507115053 | 55 | 281 | 6.0 | 10.0 | 0.00 | 0.00 | 0.00 | 20 | 1014.8 |
| 20260507114032 | 55 | 251 | 5.0 | 9.0 | 0.00 | 0.00 | 0.00 | 20 | 1014.8 |
| 20260507113031 | 55 | 296 | 6.0 | 13.0 | 0.00 | 0.00 | 0.00 | 20 | 1014.8 |
| 20260507112030 | 56 | 271 | 5.0 | 13.0 | 0.00 | 0.00 | 0.00 | 21 | 1014.8 |
| 20260507111029 | 55 | 274 | 5.0 | 10.0 | 0.00 | 0.00 | 0.00 | 21 | 1014.9 |
| 20260507110108 | 55 | 286 | 5.0 | 11.0 | 0.00 | 0.00 | 0.00 | 21 | 1014.9 |
| 20260507105027 | 54 | 300 | 7.0 | 13.0 | 0.00 | 0.00 | 0.00 | 21 | 1014.8 |
| 20260507104026 | 55 | 299 | 5.0 | 13.0 | 0.00 | 0.00 | 0.00 | 21 | 1014.8 |
| 20260507103026 | 55 | 230 | 5.0 | 10.0 | 0.00 | 0.00 | 0.00 | 22 | 1014.8 |
| 20260507102024 | 54 | 270 | 6.0 | 9.0 | 0.00 | 0.00 | 0.00 | 22 | 1014.8 |
| 20260507101043 | 54 | 291 | 7.0 | 11.0 | 0.00 | 0.00 | 0.00 | 22 | 1014.8 |
| 20260507100024 | 54 | 293 | 6.0 | 10.0 | 0.00 | 0.00 | 0.00 | 22 | 1014.7 |
| 20260507095023 | 54 | 314 | 6.0 | 11.0 | 0.00 | 0.00 | 0.00 | 23 | 1014.7 |
| 20260507094021 | 54 | 329 | 4.0 | 10.0 | 0.00 | 0.00 | 0.00 | 23 | 1014.8 |
| 20260507093040 | 53 | 344 | 6.0 | 10.0 | 0.00 | 0.00 | 0.00 | 22 | 1014.8 |
| 20260507092040 | 53 | 279 | 6.0 | 13.0 | 0.00 | 0.00 | 0.00 | 23 | 1014.7 |
| 20260507091038 | 52 | 309 | 6.0 | 13.0 | 0.00 | 0.00 | 0.00 | 24 | 1014.8 |
| 20260507090016 | 54 | 343 | 4.0 | 8.0 | 0.00 | 0.00 | 0.00 | 23 | 1014.9 |
| 20260507085047 | 53 | 93 | 5.0 | 10.0 | 0.00 | 0.00 | 0.00 | 23 | 1014.9 |
| 20260507084046 | 54 | 68 | 5.0 | 10.0 | 0.00 | 0.00 | 0.00 | 22 | 1015.0 |
| 20260507083044 | 52 | 57 | 5.0 | 9.0 | 0.00 | 0.00 | 0.00 | 22 | 1015.1 |
| 20260507082043 | 53 | 358 | 5.0 | 11.0 | 0.00 | 0.00 | 0.00 | 23 | 1015.1 |
| 20260507081043 | 52 | 37 | 6.0 | 11.0 | 0.00 | 0.00 | 0.00 | 22 | 1015.1 |
| 20260507080041 | 52 | 61 | 4.0 | 10.0 | 0.00 | 0.00 | 0.00 | 23 | 1015.1 |
| 20260507075040 | 51 | 64 | 6.0 | 10.0 | 0.00 | 0.00 | 0.00 | 22 | 1015.1 |
| 20260507074038 | 51 | 28 | 4.0 | 7.0 | 0.00 | 0.00 | 0.00 | 26 | 1015.2 |
| 20260507073039 | 51 | 79 | 4.0 | 8.0 | 0.00 | 0.00 | 0.00 | 26 | 1015.3 |
| 20260507072037 | 51 | 51 | 5.0 | 10.0 | 0.00 | 0.00 | 0.00 | 27 | 1015.3 |
| 20260507071055 | 50 | 61 | 5.0 | 10.0 | 0.00 | 0.00 | 0.00 | 28 | 1015.3 |
| 20260507070034 | 50 | 54 | 4.0 | 9.0 | 0.00 | 0.00 | 0.00 | 29 | 1015.2 |
| 20260507065034 | 49 | 49 | 5.0 | 10.0 | 0.00 | 0.00 | 0.00 | 31 | 1015.3 |
| 20260507064034 | 49 | 44 | 6.0 | 10.0 | 0.00 | 0.00 | 0.00 | 31 | 1015.3 |
| 20260507063054 | 48 | 58 | 6.0 | 9.0 | 0.00 | 0.00 | 0.00 | 32 | 1015.2 |
| 20260507062032 | 47 | 52 | 6.0 | 10.0 | 0.00 | 0.00 | 0.00 | 34 | 1015.2 |
| 20260507061030 | 46 | 66 | 6.0 | 10.0 | 0.00 | 0.00 | 0.00 | 35 | 1015.1 |
| 20260507060030 | 46 | 54 | 6.0 | 10.0 | 0.00 | 0.00 | 0.00 | 36 | 1015.1 |
| 20260507055029 | 46 | 44 | 6.0 | 11.0 | 0.00 | 0.00 | 0.00 | 36 | 1015.1 |
| 20260507054027 | 44 | 50 | 6.0 | 12.0 | 0.00 | 0.00 | 0.00 | 37 | 1015.0 |
| 20260507053026 | 43 | 45 | 5.0 | 12.0 | 0.00 | 0.00 | 0.00 | 40 | 1015.0 |
| 20260507052044 | 41 | 11 | 4.0 | 6.0 | 0.00 | 0.00 | 0.00 | 45 | 1015.1 |
| 20260507051044 | 39 | 1 | 4.0 | 6.0 | 0.00 | 0.00 | 0.00 | 48 | 1015.0 |
| 20260507050024 | 39 | 18 | 4.0 | 6.0 | 0.00 | 0.00 | 0.00 | 47 | 1015.0 |
| 20260507045022 | 38 | 1 | 4.0 | 7.0 | 0.00 | 0.00 | 0.00 | 50 | 1015.0 |
| 20260507044021 | 37 | 343 | 4.0 | 7.0 | 0.00 | 0.00 | 0.00 | 53 | 1014.9 |
| 20260507043022 | 36 | 332 | 4.0 | 7.0 | 0.00 | 0.00 | 0.00 | 54 | 1014.9 |
| 20260507042040 | 37 | 343 | 4.0 | 6.0 | 0.00 | 0.00 | 0.00 | 53 | 1015.0 |
| 20260507041019 | 36 | 344 | 4.0 | 6.0 | 0.00 | 0.00 | 0.00 | 54 | 1015.0 |
| 20260507040037 | 36 | 341 | 5.0 | 7.0 | 0.00 | 0.00 | 0.00 | 54 | 1015.0 |
| 20260507035016 | 35 | 336 | 5.0 | 6.0 | 0.00 | 0.00 | 0.00 | 55 | 1015.0 |
| 20260507034046 | 35 | 355 | 5.0 | 6.0 | 0.00 | 0.00 | 0.00 | 52 | 1014.9 |
| 20260507033044 | 35 | 1 | 4.0 | 7.0 | 0.00 | 0.00 | 0.00 | 53 | 1014.8 |
| 20260507032045 | 38 | 30 | 5.0 | 9.0 | 0.00 | 0.00 | 0.00 | 46 | 1014.8 |
| 20260507031104 | 38 | 34 | 6.0 | 9.0 | 0.00 | 0.00 | 0.00 | 44 | 1014.7 |
| 20260507030043 | 37 | 29 | 6.0 | 9.0 | 0.00 | 0.00 | 0.00 | 44 | 1014.6 |
| 20260507025101 | 35 | 12 | 6.0 | 9.0 | 0.00 | 0.00 | 0.00 | 49 | 1014.6 |
| 20260507024040 | 34 | 5 | 5.0 | 7.0 | 0.00 | 0.00 | 0.00 | 50 | 1014.6 |
| 20260507023039 | 34 | 15 | 5.0 | 9.0 | 0.00 | 0.00 | 0.00 | 50 | 1014.6 |
| 20260507022057 | 35 | 14 | 6.0 | 9.0 | 0.00 | 0.00 | 0.00 | 49 | 1014.6 |
| 20260507021038 | 34 | 4 | 5.0 | 7.0 | 0.00 | 0.00 | 0.00 | 49 | 1014.6 |
| 20260507020036 | 34 | 346 | 3.0 | 6.0 | 0.00 | 0.00 | 0.00 | 50 | 1014.6 |
| 20260507015035 | 34 | 14 | 4.0 | 7.0 | 0.00 | 0.00 | 0.00 | 51 | 1014.6 |
| 20260507014055 | 37 | 38 | 5.0 | 10.0 | 0.00 | 0.00 | 0.00 | 45 | 1014.5 |
| 20260507013034 | 37 | 51 | 6.0 | 10.0 | 0.00 | 0.00 | 0.00 | 44 | 1014.4 |
| 20260507012052 | 37 | 49 | 5.0 | 9.0 | 0.00 | 0.00 | 0.00 | 43 | 1014.4 |
| 20260507011033 | 37 | 58 | 6.0 | 9.0 | 0.00 | 0.00 | 0.00 | 42 | 1014.4 |
| 20260507010031 | 38 | 50 | 7.0 | 10.0 | 0.00 | 0.00 | 0.00 | 40 | 1014.4 |
| 20260507005030 | 38 | 50 | 7.0 | 10.0 | 0.00 | 0.00 | 0.00 | 40 | 1014.3 |
| 20260507004029 | 39 | 43 | 7.0 | 10.0 | 0.00 | 0.00 | 0.00 | 39 | 1014.3 |
| 20260507003027 | 39 | 36 | 7.0 | 10.0 | 0.00 | 0.00 | 0.00 | 37 | 1014.2 |
| 20260507002026 | 39 | 40 | 7.0 | 11.0 | 0.00 | 0.00 | 0.00 | 38 | 1014.2 |
| 20260507001026 | 38 | 42 | 7.0 | 11.0 | 0.00 | 0.00 | 0.00 | 38 | 1014.2 |
| 20260507000025 | 38 | 21 | 5.0 | 10.0 | 0.00 | 0.00 | 0.00 | 39 | 1014.3 |
| 20260506235023 | 37 | 16 | 5.0 | 9.0 | 0.00 | 0.00 | 0.00 | 40 | 1014.3 |
| 20260506234024 | 37 | 23 | 5.0 | 8.0 | 0.00 | 0.00 | 0.00 | 40 | 1014.3 |
| 20260506233022 | 37 | 12 | 4.0 | 6.0 | 0.00 | 0.00 | 0.00 | 41 | 1014.3 |
| 20260506232020 | 37 | 2 | 4.0 | 6.0 | 0.00 | 0.00 | 0.00 | 41 | 1014.2 |
| 20260506231020 | 38 | 11 | 5.0 | 7.0 | 0.00 | 0.00 | 0.00 | 40 | 1014.2 |
| 20260506230019 | 38 | 15 | 5.0 | 7.0 | 0.00 | 0.00 | 0.00 | 40 | 1014.2 |
| 20260506225018 | 38 | 2 | 4.0 | 7.0 | 0.00 | 0.00 | 0.00 | 40 | 1014.2 |
| 20260506224017 | 38 | 353 | 4.0 | 6.0 | 0.00 | 0.00 | 0.00 | 40 | 1014.2 |
| 20260506223046 | 38 | 349 | 4.0 | 7.0 | 0.00 | 0.00 | 0.00 | 40 | 1014.1 |
| 20260506222046 | 39 | 349 | 4.0 | 7.0 | 0.00 | 0.00 | 0.00 | 40 | 1014.1 |
| 20260506221045 | 38 | 347 | 3.0 | 5.0 | 0.00 | 0.00 | 0.00 | 46 | 1014.0 |
| 20260506220043 | 38 | 336 | 3.0 | 5.0 | 0.00 | 0.00 | 0.00 | 52 | 1014.0 |
| 20260506215101 | 39 | 341 | 4.0 | 7.0 | 0.00 | 0.00 | 0.00 | 47 | 1014.0 |
| 20260506214042 | 40 | 343 | 4.0 | 5.0 | 0.00 | 0.00 | 0.00 | 44 | 1014.0 |
| 20260506213100 | 39 | 340 | 3.0 | 5.0 | 0.00 | 0.00 | 0.00 | 44 | 1013.9 |
| 20260506212039 | 39 | 340 | 3.0 | 5.0 | 0.00 | 0.00 | 0.00 | 45 | 1013.9 |
| 20260506211038 | 40 | 331 | 4.0 | 6.0 | 0.00 | 0.00 | 0.00 | 43 | 1013.8 |
| 20260506210037 | 41 | 340 | 4.0 | 6.0 | 0.00 | 0.00 | 0.00 | 39 | 1013.8 |
| 20260506205035 | 41 | 344 | 4.0 | 6.0 | 0.00 | 0.00 | 0.00 | 39 | 1013.8 |
| 20260506204037 | 41 | 335 | 3.0 | 6.0 | 0.00 | 0.00 | 0.00 | 42 | 1013.7 |
| 20260506203033 | 42 | 331 | 3.0 | 5.0 | 0.00 | 0.00 | 0.00 | 40 | 1013.7 |
| 20260506202033 | 42 | 337 | 4.0 | 6.0 | 0.00 | 0.00 | 0.00 | 38 | 1013.7 |
| 20260506201034 | 42 | 328 | 3.0 | 7.0 | 0.00 | 0.00 | 0.00 | 38 | 1013.7 |
| 20260506200033 | 42 | 315 | 3.0 | 5.0 | 0.00 | 0.00 | 0.00 | 36 | 1013.7 |
| 20260506195030 | 42 | 317 | 3.0 | 5.0 | 0.00 | 0.00 | 0.00 | 32 | 1013.6 |
| 20260506194031 | 43 | 331 | 3.0 | 5.0 | 0.00 | 0.00 | 0.00 | 28 | 1013.6 |
| 20260506193029 | 44 | 346 | 3.0 | 5.0 | 0.00 | 0.00 | 0.00 | 26 | 1013.6 |
| 20260506192028 | 44 | 358 | 3.0 | 5.0 | 0.00 | 0.00 | 0.00 | 25 | 1013.5 |
| 20260506191027 | 44 | 355 | 2.0 | 4.0 | 0.00 | 0.00 | 0.00 | 25 | 1013.4 |
| 20260506190047 | 44 | 356 | 2.0 | 4.0 | 0.00 | 0.00 | 0.00 | 27 | 1013.4 |
| 20260506185045 | 44 | 5 | 1.0 | 3.0 | 0.00 | 0.00 | 0.00 | 32 | 1013.3 |
| 20260506184024 | 45 | 12 | 1.0 | 3.0 | 0.00 | 0.00 | 0.00 | 30 | 1013.3 |
| 20260506183023 | 45 | 6 | 1.0 | 3.0 | 0.00 | 0.00 | 0.00 | 29 | 1013.3 |
| 20260506182023 | 46 | 332 | 2.0 | 6.0 | 0.00 | 0.00 | 0.00 | 28 | 1013.3 |
| 20260506181041 | 47 | 333 | 3.0 | 5.0 | 0.00 | 0.00 | 0.00 | 28 | 1013.2 |